Tracking 27111 objects as of 28-Mar-2023
HD Live streaming from Space Station
objects crossing your sky now

CZ-2C DEB

Track CZ-2C DEB now!
10-day predictions


NORAD ID: 40288
Int'l Code: 2014-066C
Perigee: 691.6 km
Apogee: 954.4 km
Inclination: 97.9 °
Period: 101.2 minutes
Semi major axis: 7194 km
RCS: Unknown
Launch date: October 27, 2014
Source: People's Republic of China (PRC)
Launch site: Jiuquan Satellite Launch Center, China (JSC)

Note: This is SATELLITE DEBRIS
Your satellite tracking list
Your tracking list is empty




NASA's NSSDC Master Catalog

Two Line Element Set (TLE):
1 40288U 14066C   23087.19128906  .00002583  00000-0  98393-3 0  9998
2 40288  97.9190 300.6599 0182675 112.4142 249.6503 14.22809354436397
Source of the keplerian elements: AFSPC